Tracking 19792 objects as of 15-Jul-2019
HD Live streaming from Space Station
objects crossing your sky now

LEMUR 2 MIA-GRACE

Track LEMUR 2 MIA-GRACE now!
10-day predictions
LEMUR 2 MIA-GRACE is classified as:


NORAD ID: 41992
Int'l Code: 2017-008AW
Perigee: 491.1 km
Apogee: 503.2 km
Inclination: 97.4 °
Period: 94.4 minutes
Semi major axis: 6868 km
RCS: Unknown
Launch date: February 15, 2017
Source: United States (US)
Launch site: SRIHARIKOTA (SRI)
aabbcc
Your satellite tracking list
Your tracking list is empty




NASA's NSSDC Master Catalog

Two Line Element Set (TLE):
1 41992U 17008AW  19196.41129269  .00001245  00000-0  52337-4 0  9997
2 41992  97.4029 262.7067 0008830  60.8540 299.3581 15.25250399133331
Source of the keplerian elements: AFSPC